IDEFIX & ARIANE 42P R/B

Last updated on Tue Jul 01 2025 00:02:14 GMT+0000 (Coordinated Universal Time)

1 27422U 02021B 25181.55360908 .00000154 00000+0 75189-4 0 9998 2 27422 98.5610 118.6114 0011181 205.0215 155.0427 14.30801756207960
UTC large
Height (km)
Speed (km/s)
/
Latitude / Longitude
Inclination (degrees)
Orbital Period (minutes)
Azimuth
Elevation
Range (km)
Doppler Factor

Next 0 passes for location: London (51.5072 / 0.1276)

Sorry there are no passes over London.